Louisville Bowman, KY

7:02 AM EDT on June 23, 2017 (GMT -0400)
Bowman

Weather History for KLOU - January, 2003

Change the Weather History Date:

Wednesday, January 22, 2003

  Actual Average Record
Temperature  
Mean Temperature 18 °F 34 °F  
Max Temperature 23 °F 42 °F 68 °F (1964)
Min Temperature 14 °F 26 °F -1 °F (1970)
Degree Days  
Heating Degree Days 46 31  
Month to date heating degree days 676  
Since 1 July heating degree days 2340  
Cooling Degree Days 0 0  
Month to date cooling degree days 0  
Year to date cooling degree days 0  
Moisture  
Dew Point 10 °F    
Average Humidity 72    
Maximum Humidity 93    
Minimum Humidity 40    
Precipitation  
Precipitation 0.01 in 0.09 in 2.02 in (1982)
Month to date precipitation 2.51  
Year to date precipitation 2.51  
Sea Level Pressure  
Sea Level Pressure 30.30 in    
Wind  
Wind Speed 8 mph (North)    
Max Wind Speed 12 mph    
Max Gust Speed -    
Visibility 5 miles    
Events Snow    
T = Trace of Precipitation, MM = Missing Value Source: NWS Daily Summary

Daily Weather History Graph

Daily Weather History Graph

Search for Another Location

Airport or City:

Trip Planner

Search our weather history database for the weather conditions in past years. The results will help you decide how hot, cold, wet, or windy it might be!

Date:

Astronomy

Jan. 22, 2003 Rise Set
Actual Time 7:55 AM EST 5:53 PM EST
Civil Twilight 7:26 AM EST 6:22 PM EST
Nautical Twilight 6:54 AM EST 6:54 PM EST
Astronomical Twilight 6:22 AM EST 7:25 PM EST
Moon 10:47 PM EST (1/22) 10:49 AM EST (1/22)
Length of Visible Light 10h 55m
Length of Day
9h 58m
Waning Gibbous, 79% of the Moon is Illuminated
Jan 22
Waning Gibbous
Jan 25
Last Quarter
Feb 1
New
Feb 9
First Quarter
Feb 16
Full

Hourly Weather History & Observations

Time (EST) Temp. Windchill Dew Point Humidity Pressure Visibility Wind Dir Wind Speed Gust Speed Precip Events Conditions
12:53 AM 21.9 °F 13.4 °F 9.0 °F 58% 30.24 in 10.0 mi North 6.9 mph - N/A   Overcast
1:53 AM 21.0 °F 9.3 °F 8.1 °F 57% 30.25 in 10.0 mi NNE 11.5 mph - N/A   Overcast
2:53 AM 19.9 °F 11.1 °F 8.1 °F 60% 30.26 in 10.0 mi NNE 6.9 mph - N/A   Mostly Cloudy
3:53 AM 19.9 °F 9.3 °F 9.0 °F 62% 30.27 in 10.0 mi NNE 9.2 mph - N/A   Overcast
4:53 AM 19.0 °F 8.2 °F 9.0 °F 65% 30.28 in 10.0 mi North 9.2 mph - N/A   Overcast
5:53 AM 18.0 °F 9.8 °F 10.0 °F 71% 30.30 in 10.0 mi North 5.8 mph - N/A   Overcast
6:53 AM 17.1 °F 11.7 °F 9.0 °F 71% 30.28 in 10.0 mi North 3.5 mph - N/A   Clear
7:53 AM 17.1 °F 10.0 °F 10.0 °F 74% 30.29 in 10.0 mi North 4.6 mph - N/A   Clear
8:53 AM 17.1 °F 10.0 °F 10.0 °F 74% 30.30 in 10.0 mi NNE 4.6 mph - N/A   Clear
9:53 AM 19.0 °F 12.3 °F 9.0 °F 65% 30.34 in 10.0 mi North 4.6 mph - N/A   Mostly Cloudy
10:53 AM 21.0 °F 12.4 °F 9.0 °F 60% 30.34 in 10.0 mi North 6.9 mph - N/A   Overcast
11:53 AM 21.9 °F 13.4 °F 7.0 °F 53% 30.33 in 10.0 mi WNW 6.9 mph - N/A   Overcast
12:53 PM 23.0 °F 12.4 °F 5.0 °F 46% 30.30 in 10.0 mi NW 10.4 mph - N/A   Clear
1:53 PM 23.0 °F - 3.0 °F 42% 30.28 in 10.0 mi Calm Calm - N/A   Overcast
2:53 PM 23.0 °F 13.1 °F 1.9 °F 40% 30.27 in 10.0 mi North 9.2 mph - N/A   Mostly Cloudy
3:53 PM 23.0 °F 12.4 °F 1.9 °F 40% 30.27 in 10.0 mi North 10.4 mph - N/A   Overcast
4:53 PM 21.0 °F 9.9 °F 6.1 °F 53% 30.30 in 10.0 mi NNW 10.4 mph - N/A   Overcast
5:17 PM 19.4 °F 9.5 °F 10.4 °F 68% 30.28 in 2.0 mi North 8.1 mph - 0.00 in Snow Light Snow
5:22 PM 19.4 °F 11.5 °F 12.2 °F 74% 30.28 in 1.8 mi North 5.8 mph - 0.00 in Snow Light Snow
5:53 PM 19.0 °F 10.0 °F 14.0 °F 81% 30.30 in 2.0 mi NNE 6.9 mph - 0.00 in Snow Light Snow
6:09 PM 19.4 °F 10.4 °F 14.0 °F 80% 30.28 in 1.5 mi North 6.9 mph - 0.00 in Snow Light Snow
6:23 PM 19.4 °F 9.5 °F 15.8 °F 86% 30.28 in 2.0 mi North 8.1 mph - 0.00 in Snow Light Snow
6:39 PM 17.6 °F 9.3 °F 15.8 °F 93% 30.29 in 1.2 mi North 5.8 mph - 0.00 in Snow Light Snow
6:53 PM 18.0 °F 7.7 °F 15.1 °F 88% 30.32 in 1.5 mi North 8.1 mph - 0.00 in Snow Light Snow
7:42 PM 17.6 °F 7.3 °F 12.2 °F 79% 30.30 in 2.0 mi North 8.1 mph - 0.01 in Snow Light Snow
7:53 PM 18.0 °F 7.7 °F 14.0 °F 84% 30.33 in 2.5 mi North 8.1 mph - 0.01 in Snow Light Snow
8:12 PM 17.6 °F 10.7 °F 14.0 °F 86% 30.31 in 3.0 mi North 4.6 mph - 0.00 in Snow Light Snow
8:20 PM 17.6 °F 8.2 °F 14.0 °F 86% 30.31 in 2.0 mi North 6.9 mph - 0.00 in Snow Light Snow
8:29 PM 17.6 °F 6.4 °F 14.0 °F 86% 30.31 in 1.8 mi North 9.2 mph - 0.00 in Snow Light Snow
8:38 PM 17.6 °F 6.4 °F 12.2 °F 79% 30.31 in 2.0 mi North 9.2 mph - 0.00 in Snow Light Snow
8:53 PM 17.1 °F 5.8 °F 12.9 °F 84% 30.33 in 2.0 mi North 9.2 mph - 0.00 in Snow Light Snow
9:14 PM 17.6 °F 5.0 °F 14.0 °F 86% 30.31 in 1.2 mi NNW 11.5 mph - 0.00 in Snow Light Snow
9:22 PM 17.6 °F 5.0 °F 12.2 °F 79% 30.31 in 1.5 mi NNW 11.5 mph - 0.00 in Snow Light Snow
9:31 PM 17.6 °F 5.0 °F 12.2 °F 79% 30.30 in 1.5 mi NNW 11.5 mph - 0.00 in Snow Light Snow
9:42 PM 17.6 °F 6.4 °F 12.2 °F 79% 30.30 in 1.8 mi NNW 9.2 mph - 0.00 in Snow Light Snow
9:53 PM 16.0 °F 2.9 °F 12.9 °F 88% 30.33 in 2.0 mi North 11.5 mph - 0.00 in Snow Light Snow
10:04 PM 15.8 °F 2.7 °F 12.2 °F 86% 30.30 in 3.0 mi NNW 11.5 mph - 0.00 in Snow Light Snow
10:20 PM 15.8 °F 3.4 °F 10.4 °F 79% 30.31 in 2.5 mi North 10.4 mph - 0.00 in Snow Light Snow
10:53 PM 15.1 °F 1.8 °F 10.9 °F 84% 30.33 in 2.5 mi North 11.5 mph - 0.00 in Snow Light Snow
11:40 PM 14.0 °F 1.2 °F 8.6 °F 79% 30.32 in 3.0 mi NNW 10.4 mph - 0.00 in Snow Light Snow
11:53 PM 14.0 °F 2.0 °F 9.0 °F 80% 30.35 in 4.0 mi NNW 9.2 mph - 0.00 in Snow Light Snow